Torna al catalogo

GAOFEN 3

AttivoScienzaSSO
NORAD 41727·PAYLOAD·🇨🇳 China

Lanciato Aug 9, 2016 da Taiyuan Satellite Launch Center

Loading…

Prossimi Passaggi (prossime 24 ore)

TLE

AggiornatoSource: Space-Track

Epoca: Sep 14, 2026, 15:37 UTC

1 41727U 16049A   26257.65069792  .00000008  00000-0  15465-4 0  9990
2 41727  98.4045 264.1009 0000854  78.0847 282.0439 14.42225110531544

Traccia GAOFEN 3 in tempo reale con AllMySat

Download on the App Store